Location: Unspecified
(0.0000°N, 0.0000°E)
Time: 13:55:22
(UTC+02:00)

SJ-6B - Visible Passes

Search period start: 30 August 2015 00:00
Search period end: 09 September 2015 00:00
Orbit: 514 x 589 km, 97.8° (Epoch: 29 August)

Date Brightness Start Highest point End Pass type
(mag) Time Alt. Az. Time Alt. Az. Time Alt. Az.
30 Aug 3.0 20:23:24 10° SSE 20:27:34 87° E 20:31:43 10° N visible
31 Aug 2.9 20:19:42 10° SSE 20:23:52 76° ENE 20:28:00 10° N visible
01 Sep 3.0 20:16:01 10° SSE 20:20:09 66° ENE 20:24:16 10° N visible
07 Sep 6.5 21:31:53 10° WSW 21:32:27 10° W 21:32:40 10° W visible
08 Sep 6.2 21:27:05 10° WSW 21:28:42 12° W 21:30:02 10° W visible
